USTRANSCOM 7514


EGUN
RAF Mildenhall
Mildenhall, GB
KWRI
Joint Base McGuire Dix Lakehurst
Wrightstown, US

Activity Log

Date Flight Route Aircraft Duration
07/15/2019 CMB814 Not Available B763 7h 36m
06/01/2019 CMB814 EGUN DTY UL10 HON MOSUN DIKAS UL9 SLANY XETBO NATS JOOPY BGR GDM RBV KWRI B763 8h 30m

Route Details

Aircraft Information
Primary: Boeing 767-300BDSF
Backup: Boeing 757-200SF
Route Data
Distance: 3069nm
Sched. Duration: 8h 00m
Avg. Duration: 7h 83m (-17m)
Times Flown: 2
Recm'd Route: Not Available
Planned Altitude: 32,000ft
Origin Wx: EGUN 030156Z AUTO 00000KT 9999 BKN140 12/09 A2985 RMK AO2 SLP111 T01170094 $
Dest. Wx: KWRI 030156Z AUTO 18003KT 10SM FEW065 18/11 A2987 RMK AO2 SLP114 T01760105 $
Notes: USTRANSCOM CONTRACT FLIGHT

Financial History
Total Freight: 210,518lbs
Average Load: 105,259lbs/flt
Fuel Used: 187,886lbs
Avg. Fuel Used: 93,943lbs/flt
Fuel Expense: $150,309
Avg. Fuel Expense: $75,154
Avg. Fuel Cost: $0.80/lbs
Total Gross Income: $395,774
Pilot Pay: $378
Total Expenses: $42,848
Total Revenue: $198,855
Average Revenue: $197,886.92